Location: D�nning
(49.2479°N, 12.8491°E)
Time: 06:31:36
(UTC+00:00)

Resurs 01 Rocket - Pass Details

Date: 18 September 2020
Orbit: 633 x 645 km, 98.0° (Epoch: 27 October)

Event Time Altitude Azimuth Distance (km) Brightness Sun altitude
Exits shadow 20:56:48 17° 268° (W) 1,626 4.0 -32.6°
Maximum altitude 20:56:57 17° 270° (W) 1,625 4.0 -32.6°
Drops below altitude 10° 20:59:54 10° 312° (NW) 2,052 5.0 -32.9°
Sets 21:02:50 0° 332° (NNW) 2,967 6.1 -33.1°
